Location: Winterbach
(48.7987°N, 9.4817°E)
Time: 05:25:43
(UTC+00:00)

Daily predictions for brighter satellites

Satellite Brightness Start Highest point End
(mag) Time Altitude Azimuth Time Altitude Azimuth Time Altitude Azimuth
USA 59 Rocket 3.1 03:08:36 10° ESE 03:08:36 10° ESE 03:08:39 10° ESE
SL-16 R/B 3.7 03:19:10 30° NE 03:19:17 30° NE 03:24:15 10° ESE
Cosmos 2082 Rocket 3.4 03:23:08 39° ENE 03:23:08 39° ENE 03:27:04 10° NE
USA 234 3.9 03:23:27 10° ENE 03:28:36 46° NNE 03:28:36 46° NNE
Cosmos 1980 Rocket 4.4 03:44:55 13° S 03:44:55 13° S 03:45:29 10° S
Cosmos 2369 4.5 03:51:16 42° SSE 03:51:16 42° SSE 03:54:55 10° SSE
NOSS 3-1 (C) 3.9 03:52:29 65° NNW 03:53:48 86° NE 04:02:35 10° SE
Cosmos 841 Rocket 3.9 04:00:24 51° SSE 04:01:23 61° ESE 04:06:35 10° NNE
COSMOS 2455 3.1 04:07:00 55° SSW 04:07:00 55° SSW 04:11:53 10° SSE
Cosmos 2360 Rocket 3.4 04:09:26 23° N 04:12:14 37° NE 04:17:25 10° ESE
Cosmos 2333 Rocket 2.9 04:11:00 33° N 04:13:21 52° NE 04:18:57 10° SE
ATLAS 3B R/B 4.2 04:14:24 23° NNW 04:17:49 31° NNE 04:24:32 10° ENE
Nadezhda 4 Rocket 3.9 04:12:02 10° S 04:18:22 89° E 04:24:40 10° N
NOSS 3-4 (A) 4.5 04:23:03 27° NNW 04:23:03 27° NNW 04:27:48 10° NE
NOSS 3-4 (C) 4.5 04:23:12 28° NNW 04:23:12 28° NNW 04:27:58 10° NE
Cosmos 1892 Rocket 4.2 04:18:59 10° S 04:23:13 54° E 04:27:32 10° NNE
Cosmos-2242 4.2 04:24:05 19° NNE 04:26:42 41° ENE 04:30:41 10° SE
Cosmos 1898 Rocket 4.1 04:29:28 42° SSW 04:29:28 42° SSW 04:33:17 10° S
Cosmos 2219 Rocket 3.7 04:25:49 16° N 04:29:40 32° NE 04:34:42 10° ESE
COSMO-SKYMED 1 2.8 04:27:19 10° SSE 04:31:22 62° ENE 04:32:40 40° N
IRS-1D 3.5 04:28:36 10° NNE 04:33:38 77° ESE 04:38:43 10° S
Meteor 2-20 4.5 04:29:04 10° N 04:35:12 79° E 04:41:17 10° SSE
Cosmos 2322 Rocket 2.7 04:32:25 24° NNW 04:35:48 58° ENE 04:41:23 10° SE
Orbus 7S? 3.8 04:48:21 35° NE 04:48:21 35° NE 04:50:27 10° E
Cosmos 1937 Rocket 3.7 04:49:25 45° W 04:49:32 45° WSW 04:54:23 10° S
Cosmos 858 Rocket 4.4 04:49:23 43° NW 04:50:52 61° WSW 04:55:58 10° S
BREEZE M DEB (TANK) 4.3 04:50:05 10° S 04:51:36 15° SE 04:53:37 10° E
USA 59 Rocket 1.6 04:54:18 21° SW 04:54:18 21° SW 04:57:01 10° S
BREEZE-M DEB (TANK) 3.9 04:55:04 24° ESE 04:55:04 24° ESE 04:56:01 10° ESE
Meteor 2-3 Rocket 3.6 04:48:28 10° SSW 04:54:11 74° WNW 04:59:53 10° N
Meteor 1-26 Rocket 4.2 04:49:33 10° NNW 04:55:07 87° ENE 05:00:49 10° S
Cosmos 1484 Rocket 3.8 04:52:33 10° NNE 04:55:48 40° E 04:59:00 10° S
Meteor 2-20 Rocket 4.3 04:51:11 10° N 04:56:59 82° E 05:02:41 10° SSE
Cosmos 2058 Rocket 3.0 04:54:41 19° N 04:57:51 88° W 05:02:15 10° S
SKYMED 2 3.8 04:55:37 10° S 04:59:48 47° W 05:00:14 45° W
COSMOS 2406 3.1 04:55:16 14° SW 05:00:08 62° WNW 05:05:48 10° NNE
NOSS 3-1 (A) 4.0 04:57:15 26° NW 05:01:51 81° SW 05:10:42 10° SSE
SL-16 R/B 2.2 05:01:03 30° NW 05:03:42 57° WSW 05:09:13 10° S
Cosmos 2082 Rocket 2.7 05:05:01 33° WNW 05:05:56 35° NW 05:11:03 10° NNE
COSMOS 2428 4.5 05:01:50 10° NNW 05:06:34 26° NE 05:11:15 10° E
CZ-4 R/B 3.7 05:02:30 10° N 05:07:05 61° WNW 05:11:37 10° SSW
SeaSat 1 4.1 05:05:19 10° N 05:07:30 17° NNW 05:07:30 17° NNW
Cosmos 1627 Rocket 4.3 05:02:53 10° SSW 05:08:59 73° W 05:15:09 10° N
USA 234 3.8 05:05:56 10° ENE 05:12:05 45° N 05:15:57 22° NW
BREEZE-M DEB (TANK) 2.5 05:12:01 55° W 05:12:33 88° NNW 05:14:49 10° ENE
Okean 1 2.8 05:11:24 28° NNW 05:13:09 73° W 05:16:41 10° S
Helios 1A Rocket 2.7 05:12:33 10° S 05:15:46 43° W 05:15:55 42° W
CZ-2C R/B 4.5 05:12:31 10° NNW 05:13:16 13° NNW 05:13:16 13° NNW
Cosmos 1814 Rocket 4.4 05:11:25 10° S 05:16:36 68° ESE 05:21:53 10° NNE
NOAA 12 4.2 05:12:15 10° N 05:17:24 53° WNW 05:22:29 10° SW
DMSP B5D1-3 4.4 05:14:17 10° SSE 05:19:25 83° WSW 05:24:33 10° NNW
CBERS-1 4.5 05:16:21 10° NNE 05:21:26 64° ESE 05:26:28 10° S
Cosmos 2285 Rocket 4.0 05:17:15 10° NNW 05:23:40 88° WSW 05:30:05 10° SSE
BREEZE-M DEB (TANK) 2.6 05:23:26 38° W 05:24:23 78° N 05:29:27 10° E
BREEZE-M DEB (TANK) 3.2 05:24:35 25° WSW 05:26:13 48° S 05:32:48 10° ESE
Cosmos 2278 4.1 05:24:16 21° NW 05:27:41 43° WSW 05:32:58 10° S
IRIDIUM 103 4.3 05:24:19 10° S 05:29:32 87° E 05:34:48 10° N
SL-4 R/B 1.3 05:28:33 34° WNW 05:29:48 80° SSW 05:32:59 10° ESE
Cosmos 2151 4.1 05:27:35 10° SSE 05:31:29 45° E 05:35:25 10° NNE
Cosmos 1758 Rocket 3.7 05:28:50 10° S 05:33:15 81° E 05:37:39 10° NNE
Cosmos 2026 Rocket 4.1 05:28:25 10° SSW 05:34:13 46° WNW 05:40:06 10° N
NOSS 8 (A) 4.1 05:33:10 31° WNW 05:34:23 65° SW 05:37:36 10° SSE
Cosmos 2221 2.8 05:31:24 10° N 05:35:32 64° ENE 05:39:38 10° SSE
Thor Agena Rocket 4.0 05:34:34 10° NNE 05:39:37 64° ESE 05:44:35 10° S
Cosmos 1238 Rocket 4.4 05:40:02 10° NNE 05:42:24 23° ENE 05:44:44 10° SE
Cosmos 405 Rocket 2.2 05:39:44 10° SSW 05:42:59 66° WNW 05:46:15 10° N
Cosmos 1707 3.2 05:43:05 10° N 05:46:09 47° ENE 05:49:11 10° SSE
IRIDIUM 106 4.3 05:42:42 10° SSW 05:47:53 67° W 05:53:06 10° N
Cosmos 158 Rocket 4.0 05:43:22 10° SSW 05:48:42 80° WNW 05:53:58 10° NNE
KORONAS-FOTON 3.9 05:50:24 10° N 05:53:46 63° E 05:57:05 10° SSE
Cosmos 1626 Rocket 3.7 05:51:59 10° SSW 05:56:17 51° WNW 06:00:36 10° N
Cosmos 2360 Rocket 2.6 05:51:12 11° NW 05:56:18 44° WSW 06:01:34 10° S
S3M 4.1 05:50:09 10° N 05:56:23 80° E 06:02:31 10° SSE
Cosmos 2333 Rocket 3.1 05:53:03 13° NW 05:57:23 30° WSW 06:02:19 10° SSW
Cosmos 1553 Rocket 4.2 05:51:44 10° NNW 05:57:54 52° W 06:04:04 10° SSW
SMAP 3.1 05:55:17 10° NNE 05:59:58 88° WNW 06:04:38 10° SSW
Cosmos 1833 4.2 05:55:04 10° SSW 06:00:42 82° WNW 06:06:28 10° NNE
SL-08 R/B 4.1 05:58:37 10° SE 06:03:04 50° ENE 06:07:36 10° N
Cosmos-2242 4.2 06:00:26 11° NW 06:03:27 21° W 06:06:34 10° SW
Cosmos 1842 3.4 06:01:05 10° N 06:04:24 58° ENE 06:07:40 10° SSE
Landsat 7 3.8 06:00:35 10° NNE 06:05:16 86° ESE 06:09:56 10° SSW
Cosmos 2237 Rocket 3.7 06:02:10 10° NNW 06:07:05 30° NE 06:11:58 10° ESE
COSMO-SKYMED 1 4.2 06:04:47 10° SW 06:07:05 14° W 06:09:00 11° WNW
Cosmos 1125 Rocket 3.5 06:03:01 10° NNW 06:08:18 77° WSW 06:13:30 10° SSE
ATLAS 3B R/B 3.3 06:02:14 10° NW 06:10:06 65° NE 06:17:35 10° SE
Meteor 1-10 Rocket 4.4 06:04:39 10° NNW 06:10:35 82° W 06:16:31 10° S
BREEZE-M DEB (TANK) 4.4 06:09:24 10° SW 06:11:34 32° SSE 06:14:34 10° E
Cosmos 2219 Rocket 2.4 06:08:22 10° NW 06:13:52 52° WSW 06:19:17 10° S
Meteor 1-19 Rocket 4.3 06:10:11 10° NNW 06:15:57 70° W 06:21:50 10° S
Cosmos 2322 Rocket 3.2 06:14:47 10° NW 06:19:27 27° WSW 06:24:06 10° SSW
BREEZE-M DEB (TANK) 3.9 06:05:03 10° W 06:21:28 85° N 06:25:33 10° E
Okean 1-7 Rocket 3.6 06:21:33 10° SSW 06:26:02 68° W 06:30:30 10° N
YAOGAN 11 4.2 06:22:28 10° SSE 06:26:50 82° ENE 06:31:09 10° NNW
IGS 5A 4.4 06:24:00 10° NNW 06:27:14 24° WNW 06:30:27 10° WSW
Cosmos 1812 Rocket 4.1 06:23:33 10° NNW 06:27:34 38° W 06:31:35 10° SSW
Cosmos 1484 Rocket 4.0 06:26:15 10° NNW 06:28:24 16° WNW 06:30:31 10° WSW
Cosmos 2322 3.8 06:23:22 10° NNW 06:29:04 90° NNE 06:34:45 10° SSE
Cosmos 2266 Rocket 4.1 06:26:10 10° SSW 06:32:28 61° WNW 06:38:44 10° N
